EST,Max TemperatureF,Mean TemperatureF,Min TemperatureF,Max Dew PointF,MeanDew PointF,Min DewpointF,Max Humidity, Mean Humidity, Min Humidity, Max Sea Level PressureIn, Mean Sea Level PressureIn, Min Sea Level PressureIn, Max VisibilityMiles, Mean VisibilityMiles, Min VisibilityMiles, Max Wind SpeedMPH, Mean Wind SpeedMPH, Max Gust SpeedMPH,PrecipitationIn, CloudCover, Events, WindDirDegrees
2012-12-1,69,53,37,48,42,36,100,73,45,30.38,30.36,30.32,10,6,2,10,1,13,0.00,2,,305
2012-12-2,69,55,40,55,46,38,100,77,53,30.40,30.35,30.28,10,5,1,10,2,20,0.00,3,,167
2012-12-3,75,60,44,58,50,44,100,73,46,30.33,30.29,30.23,10,4,0,14,3,20,0.00,2,Fog,235
2012-12-4,74,60,46,61,51,46,100,73,46,30.35,30.29,30.22,10,3,0,13,3,16,0.00,4,Fog,205
2012-12-5,71,62,53,58,55,51,100,75,49,30.20,30.16,30.09,10,8,2,14,6,21,0.10,6,Rain,304
2012-12-6,54,51,47,52,42,35,93,75,56,30.29,30.22,30.18,10,10,8,15,7,22,0.00,8,,57
2012-12-7,66,56,46,58,48,37,100,82,63,30.17,30.07,29.99,10,8,2,10,5,21,T,8,,18
2012-12-8,63,58,52,56,53,51,100,89,78,30.08,30.03,29.99,9,3,0,10,4,13,0.00,6,Fog,262
2012-12-9,75,62,48,63,53,46,100,84,68,30.15,30.09,29.99,10,4,0,9,1,13,0.00,5,Fog,151
2012-12-10,73,67,61,64,61,57,100,81,61,29.98,29.87,29.75,10,5,0,22,5,28,T,5,Fog,216
2012-12-11,68,62,55,60,55,40,100,76,51,30.09,29.91,29.77,10,7,0,13,6,18,T,5,Fog,249
2012-12-12,55,48,41,48,43,37,100,86,72,30.27,30.20,30.10,10,5,2,21,12,28,0.82,8,Rain,42
2012-12-13,53,46,39,43,39,36,92,78,64,30.36,30.29,30.20,10,8,3,20,10,25,0.10,5,Rain,19
2012-12-14,59,46,32,39,33,25,96,62,28,30.38,30.30,30.23,10,9,6,7,1,9,0.00,0,,10
2012-12-15,56,43,30,49,41,29,100,76,51,30.27,30.17,30.09,10,6,1,7,1,8,0.00,6,,56
2012-12-16,59,54,49,58,54,48,100,97,93,30.10,30.01,29.90,4,1,0,7,1,8,0.13,8,Fog-Rain,160
2012-12-17,61,59,56,59,57,55,100,92,84,29.90,29.83,29.67,10,6,0,18,5,24,0.45,7,Fog-Rain,291
2012-12-18,63,59,55,57,48,36,93,70,46,29.94,29.78,29.70,10,10,10,20,11,26,0.00,3,,256
2012-12-19,65,51,36,45,39,34,92,65,37,30.12,30.04,29.95,10,10,7,10,3,13,0.00,0,,243
2012-12-20,69,54,38,63,52,37,100,78,55,30.12,29.81,29.54,10,8,2,31,9,41,0.37,4,Rain,168
2012-12-21,58,47,36,45,30,22,72,56,39,29.87,29.72,29.59,10,10,10,32,17,43,0.00,2,,268
2012-12-22,50,41,31,28,24,21,70,51,32,30.12,30.05,29.88,10,10,10,20,8,25,0.00,0,,274
2012-12-23,58,42,26,34,27,22,92,58,24,30.19,30.11,30.06,10,10,10,14,3,18,0.00,0,,205
2012-12-24,57,51,45,47,38,33,100,72,43,30.07,30.00,29.93,10,10,2,9,3,13,0.06,6,Rain,206
2012-12-25,61,54,46,50,48,45,100,80,60,30.10,30.03,29.95,10,7,0,15,3,18,T,5,Fog,73
2012-12-26,69,57,44,63,52,33,100,76,52,29.99,29.65,29.44,10,4,0,28,13,38,1.55,8,Fog-Rain-Thunderstorm,152
2012-12-27,54,45,35,36,33,31,92,69,46,30.07,29.92,29.72,10,10,10,21,7,30,0.00,0,,285
2012-12-28,49,40,30,38,32,28,92,71,50,30.19,30.09,29.97,10,10,8,9,2,12,0.00,3,,98
2012-12-29,53,47,40,46,41,31,100,80,60,29.99,29.79,29.71,10,6,1,20,10,24,0.77,7,Rain,335
2012-12-30,48,38,28,30,25,22,92,65,37,30.42,30.29,30.01,10,10,9,18,6,23,0.00,0,,296
2012-12-31,55,41,26,41,31,24,92,65,38,30.41,30.31,30.17,10,9,7,14,5,20,0.00,2,,224